Regional Weather Roundup
Issued by NWS

Home | Current Version | Previous Version | Graphics & Text | Print | Product List | Glossary On
Versions: 1 2 3 4 5 6 7 8 9 10 11 12 13 14 15 16 17 18 19 20 21 22 23 24 25 26 27 28 29 30 31 32 33 34 35 36 37 38 39 40 41 42 43 44 45 46 47 48 49 50
000
ASUS45 KCYS 231010
RWRWY

WYOMING REGIONAL WEATHER ROUNDUP
NATIONAL WEATHER SERVICE CHEYENNE WY
400 AM MDT SAT AUG 23 2014

NOTE:  "FAIR" INDICATES FEW OR NO CLOUDS BELOW 12,000 FEET
WITH NO SIGNIFICANT WEATHER AND/OR OBSTRUCTIONS TO VISIBILITY.

WYZ001-231100-
YELLOWSTONE NATIONAL PARK

CITY           SKY/WX    TMP DP  RH WIND       PRES   REMARKS
LK YELLOWSTONE   N/A     43  42  97 CALM      30.12F
W YELLOWSTONE  NOT AVBL

$$
WYZ002>013-054>058-071-098>099-231100-
NORTHERN WYOMING

CITY           SKY/WX    TMP DP  RH WIND       PRES   REMARKS
JACKSON        CLOUDY    46  46 100 N5        30.06F
CODY           CLOUDY    54  52  94 N3        29.99R
GREYBULL       LGT RAIN  58  57  97 NW7       29.93F
WORLAND        RAIN      56  54  93 W3        29.94S FOG
SHERIDAN       CLOUDY    59  57  93 N5        29.92F
BUFFALO        LGT RAIN  57  56  96 SE5       29.97F
GILLETTE       HVY RAIN  59  58  96 E6        29.94F FOG
HULETT         CLOUDY    63  61  94 MISG      29.97
NEWCASTLE      RAIN      61  59  94 E8        29.96

$$
WYZ014>020-022>026-101>103-231100-
CENTRAL WYOMING

CITY           SKY/WX    TMP DP  RH WIND       PRES   REMARKS
BIG PINEY      CLOUDY    46  45  96 S3        30.09F
PINEDALE       CLOUDY    45  45 100 CALM      30.11F
DUBOIS         PTSUNNY   45  39  81 NW10      30.06F
LANDER         CLOUDY    53  51  93 CALM      30.00F
RIVERTON       CLOUDY    52  51  97 W8        30.02R
CASPER         CLOUDY    57  55  93 N3        29.96F
DOUGLAS        MOCLDY    58  55  90 SE13      29.96R

$$
WYZ021-027>030-104>119-231100-
SOUTHERN WYOMING

CITY           SKY/WX    TMP DP  RH WIND       PRES   REMARKS
EVANSTON       PTCLDY    45  41  86 SE5       30.10F
KEMMERER       PTSUNNY   41  41 100 SW6       30.10R
FORT BRIDGER     N/A     46  46 100 SW7       30.13R
ROCK SPRINGS   CLOUDY    46  44  93 N3        30.10S
DIXON          LGT RAIN  49  48  95 SW8       30.18R
RAWLINS        LGT RAIN  49  46  90 W12       30.09R
SARATOGA       CLOUDY    50  46  87 MISG      30.12S
LARAMIE        CLOUDY    48  47  96 S9        30.07S
CHEYENNE       CLOUDY    57  55  93 S12       30.02F
TORRINGTON     CLOUDY    60  59  96 E10       29.94F
PINE BLUFFS    PTSUNNY   55  55 100 S3        29.98F

$$


USA.gov is the U.S. government's official web portal to all federal, state and local government web resources and services.